This is the latest recevied weather packets stored in our database for station/object WX6HNX-6. If no packets are shown the sender has not sent any weather packets the latest 1 day(s).
| Time | Temp. | Humidity | Pressure | Rain* | Wind** | Luminosity | Snow |
|---|---|---|---|---|---|---|---|
| 1778068840 | 10° C | 79% | 1019.3 hPa | 0 mm | 0.89 m/s, 243° | - | - |
| 1778068540 | 10° C | 79% | 1019.3 hPa | 0 mm | 0.45 m/s, 242° | - | - |
| 1778068243 | 10° C | 79% | 1019.3 hPa | 0 mm | 1.34 m/s, 234° | - | - |
| 1778067940 | 10° C | 79% | 1019.2 hPa | 0 mm | 0.89 m/s, 238° | - | - |
| 1778067527 | 10° C | 79% | 1019.1 hPa | 0 mm | 0.89 m/s, 239° | - | - |
| 1778067227 | 10° C | 79% | 1019.2 hPa | 0 mm | 0.45 m/s, 236° | - | - |
| 1778066928 | 10° C | 79% | 1019 hPa | 0 mm | 0.89 m/s, 231° | - | - |
| 1778066628 | 10° C | 79% | 1019 hPa | 0 mm | 0.89 m/s, 229° | - | - |
| 1778066064 | 10° C | 79% | 1018.9 hPa | 0 mm | 0.89 m/s, 236° | - | - |
| 1778065764 | 10° C | 79% | 1018.9 hPa | 0 mm | 1.34 m/s, 236° | - | - |
| 1778065465 | 10° C | 79% | 1018.8 hPa | 0 mm | 0.89 m/s, 238° | - | - |
| 1778064761 | 10° C | 79% | 1018.8 hPa | 0 mm | 0.89 m/s, 229° | - | - |
| 1778064463 | 10.56° C | 78% | 1018.8 hPa | 0 mm | 1.34 m/s, 229° | - | - |
| 1778064162 | 10.56° C | 78% | 1018.8 hPa | 0 mm | 1.34 m/s, 235° | - | - |
| 1778063871 | 10.56° C | 78% | 1018.7 hPa | 0 mm | 1.34 m/s, 232° | - | - |
| 1778063561 | 10.56° C | 78% | 1018.7 hPa | 0 mm | 1.34 m/s, 238° | - | - |
| 1778063262 | 10.56° C | 78% | 1018.6 hPa | 0 mm | 1.79 m/s, 243° | - | - |
| 1778062962 | 10.56° C | 78% | 1018.6 hPa | 0 mm | 1.79 m/s, 248° | - | - |
| 1778062661 | 10.56° C | 78% | 1018.6 hPa | 0 mm | 1.34 m/s, 246° | - | - |
| 1778062362 | 10.56° C | 77% | 1018.5 hPa | 0 mm | 0.45 m/s, 255° | - | - |
| 1778062063 | 10.56° C | 77% | 1018.6 hPa | 0 mm | 0.45 m/s, 237° | - | - |
| 1778061761 | 10.56° C | 77% | 1018.5 hPa | 0 mm | 0.89 m/s, 235° | - | - |
| 1778061461 | 11.11° C | 76% | 1018.6 hPa | 0 mm | 1.34 m/s, 235° | - | - |
| 1778061163 | 11.11° C | 76% | 1018.6 hPa | 0 mm | 1.34 m/s, 233° | - | - |
| 1778060862 | 11.11° C | 76% | 1018.5 hPa | 0 mm | 0.89 m/s, 247° | - | - |
* Rain latest hour (hover to see other rain measurements)
** Current wind speed in m/s (hover to see current wind gust speed)